owner,sensor,date,latitude,longitude,vertical_datum,sea_water_practical_salinity,qcFlag 
SCCF RECON,ioos:station:SCCF:53:1,2008-08-01T00:00:00Z,26.6493,-81.8810,2.299,0.84,1111122 
SCCF RECON,ioos:station:SCCF:53:1,2008-08-01T01:00:00Z,26.6493,-81.8810,2.23,0.65,1111122 
SCCF RECON,ioos:station:SCCF:53:1,2008-08-01T02:00:00Z,26.6493,-81.8810,2.17,0.54,1111122 
SCCF RECON,ioos:station:SCCF:53:1,2008-08-01T03:00:00Z,26.6493,-81.8810,2.11,0.49,1111122 
SCCF RECON,ioos:station:SCCF:53:1,2008-08-01T04:00:00Z,26.6493,-81.8810,2.08,0.48,1111122 
SCCF RECON,ioos:station:SCCF:53:1,2008-08-01T05:00:00Z,26.6493,-81.8810,2.096,0.47,1111122 
SCCF RECON,ioos:station:SCCF:53:1,2008-08-01T06:00:00Z,26.6493,-81.8810,2.14,0.5,1111122 
SCCF RECON,ioos:station:SCCF:53:1,2008-08-01T07:00:00Z,26.6493,-81.8810,2.2,0.58,1111122 
SCCF RECON,ioos:station:SCCF:53:1,2008-08-01T08:00:00Z,26.6493,-81.8810,2.26,0.67,1111122 
SCCF RECON,ioos:station:SCCF:53:1,2008-08-01T09:00:00Z,26.6493,-81.8810,2.29,1.02,1111122 
SCCF RECON,ioos:station:SCCF:53:1,2008-08-01T10:00:00Z,26.6493,-81.8810,2.28,0.94,1111122 
SCCF RECON,ioos:station:SCCF:53:1,2008-08-01T11:00:00Z,26.6493,-81.8810,2.26,0.61,1111122 
SCCF RECON,ioos:station:SCCF:53:1,2008-08-01T12:00:00Z,26.6493,-81.8810,2.22,0.66,1111122 
SCCF RECON,ioos:station:SCCF:53:1,2008-08-01T13:00:00Z,26.6493,-81.8810,2.18,0.5,1111122 
SCCF RECON,ioos:station:SCCF:53:1,2008-08-01T14:00:00Z,26.6493,-81.8810,2.15,0.49,1111122 
SCCF RECON,ioos:station:SCCF:53:1,2008-08-01T15:00:00Z,26.6493,-81.8810,2.197,0.47,1111122 
SCCF RECON,ioos:station:SCCF:53:1,2008-08-01T16:00:00Z,26.6493,-81.8810,2.285,0.66,1111122 
SCCF RECON,ioos:station:SCCF:53:1,2008-08-01T17:00:00Z,26.6493,-81.8810,2.359,1.27,1111122 
SCCF RECON,ioos:station:SCCF:53:1,2008-08-01T18:00:00Z,26.6493,-81.8810,2.43,1.83,1111122 
SCCF RECON,ioos:station:SCCF:53:1,2008-08-01T19:00:00Z,26.6493,-81.8810,2.5,2.34,1111122 
SCCF RECON,ioos:station:SCCF:53:1,2008-08-01T20:00:00Z,26.6493,-81.8810,2.541,2.61,1111122 
SCCF RECON,ioos:station:SCCF:53:1,2008-08-01T21:00:00Z,26.6493,-81.8810,2.54,3.13,1111122 
SCCF RECON,ioos:station:SCCF:53:1,2008-08-01T22:00:00Z,26.6493,-81.8810,2.47,1.99,1111122 
SCCF RECON,ioos:station:SCCF:53:1,2008-08-01T23:00:00Z,26.6493,-81.8810,2.4,1.75,1111122 
SCCF RECON,ioos:station:SCCF:53:1,2008-08-02T00:00:00Z,26.6493,-81.8810,2.33,1.07,1111122 
SCCF RECON,ioos:station:SCCF:53:1,2008-08-02T01:00:00Z,26.6493,-81.8810,2.265,0.8,1111122 
SCCF RECON,ioos:station:SCCF:53:1,2008-08-02T02:00:00Z,26.6493,-81.8810,2.2,0.62,1111122 
SCCF RECON,ioos:station:SCCF:53:1,2008-08-02T03:00:00Z,26.6493,-81.8810,2.15,0.5,1111122 
SCCF RECON,ioos:station:SCCF:53:1,2008-08-02T04:00:00Z,26.6493,-81.8810,2.1,0.49,1111122 
SCCF RECON,ioos:station:SCCF:53:1,2008-08-02T05:00:00Z,26.6493,-81.8810,2.09,0.49,1111122 
SCCF RECON,ioos:station:SCCF:53:1,2008-08-02T06:00:00Z,26.6493,-81.8810,2.11,0.8,1111122 
SCCF RECON,ioos:station:SCCF:53:1,2008-08-02T07:00:00Z,26.6493,-81.8810,2.17,1.56,1111122 
SCCF RECON,ioos:station:SCCF:53:1,2008-08-02T08:00:00Z,26.6493,-81.8810,2.23,1.94,1111122 
SCCF RECON,ioos:station:SCCF:53:1,2008-08-02T09:00:00Z,26.6493,-81.8810,2.27,1.97,1111122 
SCCF RECON,ioos:station:SCCF:53:1,2008-08-02T10:00:00Z,26.6493,-81.8810,2.28,2.51,1111122 
SCCF RECON,ioos:station:SCCF:53:1,2008-08-02T11:00:00Z,26.6493,-81.8810,2.241,2.21,1111122 
SCCF RECON,ioos:station:SCCF:53:1,2008-08-02T12:00:00Z,26.6493,-81.8810,2.2,1.29,1111122 
SCCF RECON,ioos:station:SCCF:53:1,2008-08-02T13:00:00Z,26.6493,-81.8810,2.15,1.35,1111122 
SCCF RECON,ioos:station:SCCF:53:1,2008-08-02T14:00:00Z,26.6493,-81.8810,2.108,1.1,1111122 
SCCF RECON,ioos:station:SCCF:53:1,2008-08-02T15:00:00Z,26.6493,-81.8810,2.082,1.16,1111122 
SCCF RECON,ioos:station:SCCF:53:1,2008-08-02T16:00:00Z,26.6493,-81.8810,2.14,2.81,1111122 
SCCF RECON,ioos:station:SCCF:53:1,2008-08-02T17:00:00Z,26.6493,-81.8810,2.224,2.98,1111122 
SCCF RECON,ioos:station:SCCF:53:1,2008-08-02T18:00:00Z,26.6493,-81.8810,2.29,2.72,1111122 
SCCF RECON,ioos:station:SCCF:53:1,2008-08-02T19:00:00Z,26.6493,-81.8810,2.365,2.83,1111122 
SCCF RECON,ioos:station:SCCF:53:1,2008-08-02T20:00:00Z,26.6493,-81.8810,2.419,3.06,1111122 
SCCF RECON,ioos:station:SCCF:53:1,2008-08-02T21:00:00Z,26.6493,-81.8810,2.479,3.12,1111122 
SCCF RECON,ioos:station:SCCF:53:1,2008-08-02T22:00:00Z,26.6493,-81.8810,2.47,3.53,1111122 
SCCF RECON,ioos:station:SCCF:53:1,2008-08-02T23:00:00Z,26.6493,-81.8810,2.399,3.0,1111122 
SCCF RECON,ioos:station:SCCF:53:1,2008-08-03T00:00:00Z,26.6493,-81.8810,2.33,2.76,1111122 
SCCF RECON,ioos:station:SCCF:53:1,2008-08-03T01:00:00Z,26.6493,-81.8810,2.27,1.9,1111122 
SCCF RECON,ioos:station:SCCF:53:1,2008-08-03T02:00:00Z,26.6493,-81.8810,2.21,1.37,1111122 
SCCF RECON,ioos:station:SCCF:53:1,2008-08-03T03:00:00Z,26.6493,-81.8810,2.15,1.12,1111122 
SCCF RECON,ioos:station:SCCF:53:1,2008-08-03T04:00:00Z,26.6493,-81.8810,2.09,0.95,1111122 
SCCF RECON,ioos:station:SCCF:53:1,2008-08-03T05:00:00Z,26.6493,-81.8810,2.07,0.86,1111122 
SCCF RECON,ioos:station:SCCF:53:1,2008-08-03T06:00:00Z,26.6493,-81.8810,2.11,2.92,1111122 
SCCF RECON,ioos:station:SCCF:53:1,2008-08-03T07:00:00Z,26.6493,-81.8810,2.16,3.56,1111122 
SCCF RECON,ioos:station:SCCF:53:1,2008-08-03T08:00:00Z,26.6493,-81.8810,2.22,3.56,1111122 
SCCF RECON,ioos:station:SCCF:53:1,2008-08-03T09:00:00Z,26.6493,-81.8810,2.28,3.7,1111122 
SCCF RECON,ioos:station:SCCF:53:1,2008-08-03T10:00:00Z,26.6493,-81.8810,2.32,3.49,1111122 
SCCF RECON,ioos:station:SCCF:53:1,2008-08-03T11:00:00Z,26.6493,-81.8810,2.32,4.12,1111122 
SCCF RECON,ioos:station:SCCF:53:1,2008-08-03T12:00:00Z,26.6493,-81.8810,2.27,2.75,1111122 
SCCF RECON,ioos:station:SCCF:53:1,2008-08-03T13:00:00Z,26.6493,-81.8810,2.22,2.55,1111122 
SCCF RECON,ioos:station:SCCF:53:1,2008-08-03T14:00:00Z,26.6493,-81.8810,2.174,2.48,1111122 
SCCF RECON,ioos:station:SCCF:53:1,2008-08-03T15:00:00Z,26.6493,-81.8810,2.138,2.08,1111122 
SCCF RECON,ioos:station:SCCF:53:1,2008-08-03T16:00:00Z,26.6493,-81.8810,2.11,2.02,1111122 
SCCF RECON,ioos:station:SCCF:53:1,2008-08-03T17:00:00Z,26.6493,-81.8810,2.16,2.39,1111122 
SCCF RECON,ioos:station:SCCF:53:1,2008-08-03T18:00:00Z,26.6493,-81.8810,2.245,2.81,1111122 
SCCF RECON,ioos:station:SCCF:53:1,2008-08-03T19:00:00Z,26.6493,-81.8810,2.31,2.59,1111122 
SCCF RECON,ioos:station:SCCF:53:1,2008-08-03T20:00:00Z,26.6493,-81.8810,2.38,2.7,1111122 
SCCF RECON,ioos:station:SCCF:53:1,2008-08-03T21:00:00Z,26.6493,-81.8810,2.443,3.09,1111122 
SCCF RECON,ioos:station:SCCF:53:1,2008-08-03T22:00:00Z,26.6493,-81.8810,2.47,3.5,1111122 
SCCF RECON,ioos:station:SCCF:53:1,2008-08-03T23:00:00Z,26.6493,-81.8810,2.44,3.32,1111122 
SCCF RECON,ioos:station:SCCF:53:1,2008-08-04T00:00:00Z,26.6493,-81.8810,2.378,2.75,1111122 
SCCF RECON,ioos:station:SCCF:53:1,2008-08-04T01:00:00Z,26.6493,-81.8810,2.32,2.24,1111122 
SCCF RECON,ioos:station:SCCF:53:1,2008-08-04T02:00:00Z,26.6493,-81.8810,2.26,1.66,1111122 
SCCF RECON,ioos:station:SCCF:53:1,2008-08-04T03:00:00Z,26.6493,-81.8810,2.2,1.41,1111122 
SCCF RECON,ioos:station:SCCF:53:1,2008-08-04T04:00:00Z,26.6493,-81.8810,2.145,1.09,1111122 
SCCF RECON,ioos:station:SCCF:53:1,2008-08-04T05:00:00Z,26.6493,-81.8810,2.1,1.02,1111122 
SCCF RECON,ioos:station:SCCF:53:1,2008-08-04T06:00:00Z,26.6493,-81.8810,2.11,0.91,1111122 
SCCF RECON,ioos:station:SCCF:53:1,2008-08-04T07:00:00Z,26.6493,-81.8810,2.16,1.03,1111122 
SCCF RECON,ioos:station:SCCF:53:1,2008-08-04T08:00:00Z,26.6493,-81.8810,2.21,1.89,1111122 
SCCF RECON,ioos:station:SCCF:53:1,2008-08-04T09:00:00Z,26.6493,-81.8810,2.27,2.31,1111122 
SCCF RECON,ioos:station:SCCF:53:1,2008-08-04T10:00:00Z,26.6493,-81.8810,2.321,2.54,1111122 
SCCF RECON,ioos:station:SCCF:53:1,2008-08-04T11:00:00Z,26.6493,-81.8810,2.34,3.05,1111122 
SCCF RECON,ioos:station:SCCF:53:1,2008-08-04T12:00:00Z,26.6493,-81.8810,2.34,2.89,1111122 
SCCF RECON,ioos:station:SCCF:53:1,2008-08-04T13:00:00Z,26.6493,-81.8810,2.29,2.3,1111122 
SCCF RECON,ioos:station:SCCF:53:1,2008-08-04T14:00:00Z,26.6493,-81.8810,2.23,1.61,1111122 
SCCF RECON,ioos:station:SCCF:53:1,2008-08-04T15:00:00Z,26.6493,-81.8810,2.186,1.58,1111122 
SCCF RECON,ioos:station:SCCF:53:1,2008-08-04T16:00:00Z,26.6493,-81.8810,2.14,1.19,1111122 
SCCF RECON,ioos:station:SCCF:53:1,2008-08-04T17:00:00Z,26.6493,-81.8810,2.11,1.24,1111122 
SCCF RECON,ioos:station:SCCF:53:1,2008-08-04T18:00:00Z,26.6493,-81.8810,2.18,1.49,1111122 
SCCF RECON,ioos:station:SCCF:53:1,2008-08-04T19:00:00Z,26.6493,-81.8810,2.25,1.29,1111122 
SCCF RECON,ioos:station:SCCF:53:1,2008-08-04T20:00:00Z,26.6493,-81.8810,2.31,2.32,1111122 
SCCF RECON,ioos:station:SCCF:53:1,2008-08-04T21:00:00Z,26.6493,-81.8810,2.37,2.43,1111122 
SCCF RECON,ioos:station:SCCF:53:1,2008-08-04T22:00:00Z,26.6493,-81.8810,2.41,3.01,1111122 
SCCF RECON,ioos:station:SCCF:53:1,2008-08-04T23:00:00Z,26.6493,-81.8810,2.41,2.71,1111122 
SCCF RECON,ioos:station:SCCF:53:1,2008-08-05T00:00:00Z,26.6493,-81.8810,2.36,2.27,1111122 
SCCF RECON,ioos:station:SCCF:53:1,2008-08-05T01:00:00Z,26.6493,-81.8810,2.3,2.0,1111122 
SCCF RECON,ioos:station:SCCF:53:1,2008-08-05T02:00:00Z,26.6493,-81.8810,2.25,1.74,1111122 
SCCF RECON,ioos:station:SCCF:53:1,2008-08-05T03:00:00Z,26.6493,-81.8810,2.2,1.43,1111122 
SCCF RECON,ioos:station:SCCF:53:1,2008-08-05T04:00:00Z,26.6493,-81.8810,2.15,1.1,1111122 
SCCF RECON,ioos:station:SCCF:53:1,2008-08-05T05:00:00Z,26.6493,-81.8810,2.1,1.01,1111122 
SCCF RECON,ioos:station:SCCF:53:1,2008-08-05T06:00:00Z,26.6493,-81.8810,2.09,0.92,1111122 
SCCF RECON,ioos:station:SCCF:53:1,2008-08-05T07:00:00Z,26.6493,-81.8810,2.15,2.37,1111122 
SCCF RECON,ioos:station:SCCF:53:1,2008-08-05T08:00:00Z,26.6493,-81.8810,2.2,2.53,1111122 
SCCF RECON,ioos:station:SCCF:53:1,2008-08-05T09:00:00Z,26.6493,-81.8810,2.252,2.91,1111122 
SCCF RECON,ioos:station:SCCF:53:1,2008-08-05T10:00:00Z,26.6493,-81.8810,2.32,2.95,1111122 
SCCF RECON,ioos:station:SCCF:53:1,2008-08-05T11:00:00Z,26.6493,-81.8810,2.368,3.25,1111122 
SCCF RECON,ioos:station:SCCF:53:1,2008-08-05T12:00:00Z,26.6493,-81.8810,2.36,3.12,1111122 
SCCF RECON,ioos:station:SCCF:53:1,2008-08-05T13:00:00Z,26.6493,-81.8810,2.31,2.58,1111122 
SCCF RECON,ioos:station:SCCF:53:1,2008-08-05T14:00:00Z,26.6493,-81.8810,2.25,1.96,1111122 
SCCF RECON,ioos:station:SCCF:53:1,2008-08-05T15:00:00Z,26.6493,-81.8810,2.201,2.03,1111122 
SCCF RECON,ioos:station:SCCF:53:1,2008-08-05T16:00:00Z,26.6493,-81.8810,2.157,1.99,1111122 
SCCF RECON,ioos:station:SCCF:53:1,2008-08-05T17:00:00Z,26.6493,-81.8810,2.11,1.79,1111122 
SCCF RECON,ioos:station:SCCF:53:1,2008-08-05T18:00:00Z,26.6493,-81.8810,2.1,2.42,1111122 
SCCF RECON,ioos:station:SCCF:53:1,2008-08-05T19:00:00Z,26.6493,-81.8810,2.15,3.21,1111122 
SCCF RECON,ioos:station:SCCF:53:1,2008-08-05T20:00:00Z,26.6493,-81.8810,2.21,3.35,1111122 
SCCF RECON,ioos:station:SCCF:53:1,2008-08-05T21:00:00Z,26.6493,-81.8810,2.25,3.66,1111122 
SCCF RECON,ioos:station:SCCF:53:1,2008-08-05T22:00:00Z,26.6493,-81.8810,2.31,4.0,1111122 
SCCF RECON,ioos:station:SCCF:53:1,2008-08-05T23:00:00Z,26.6493,-81.8810,2.36,3.72,1111122 
SCCF RECON,ioos:station:SCCF:53:1,2008-08-06T00:00:00Z,26.6493,-81.8810,2.352,2.95,1111122 
SCCF RECON,ioos:station:SCCF:53:1,2008-08-06T01:00:00Z,26.6493,-81.8810,2.32,2.68,1111122 
SCCF RECON,ioos:station:SCCF:53:1,2008-08-06T02:00:00Z,26.6493,-81.8810,2.27,2.38,1111122 
SCCF RECON,ioos:station:SCCF:53:1,2008-08-06T03:00:00Z,26.6493,-81.8810,2.22,1.92,1111122 
SCCF RECON,ioos:station:SCCF:53:1,2008-08-06T04:00:00Z,26.6493,-81.8810,2.16,2.23,1111122 
SCCF RECON,ioos:station:SCCF:53:1,2008-08-06T05:00:00Z,26.6493,-81.8810,2.11,2.25,1111122 
SCCF RECON,ioos:station:SCCF:53:1,2008-08-06T06:00:00Z,26.6493,-81.8810,2.07,2.43,1111122 
SCCF RECON,ioos:station:SCCF:53:1,2008-08-06T07:00:00Z,26.6493,-81.8810,2.09,3.75,1111122 
SCCF RECON,ioos:station:SCCF:53:1,2008-08-06T08:00:00Z,26.6493,-81.8810,2.16,3.89,1111122 
SCCF RECON,ioos:station:SCCF:53:1,2008-08-06T09:00:00Z,26.6493,-81.8810,2.22,3.75,1111122 
SCCF RECON,ioos:station:SCCF:53:1,2008-08-06T10:00:00Z,26.6493,-81.8810,2.287,3.81,1111122 
SCCF RECON,ioos:station:SCCF:53:1,2008-08-06T11:00:00Z,26.6493,-81.8810,2.34,4.59,1111122 
SCCF RECON,ioos:station:SCCF:53:1,2008-08-06T12:00:00Z,26.6493,-81.8810,2.36,4.09,1111122 
SCCF RECON,ioos:station:SCCF:53:1,2008-08-06T13:00:00Z,26.6493,-81.8810,2.33,5.37,1111122 
SCCF RECON,ioos:station:SCCF:53:1,2008-08-06T14:00:00Z,26.6493,-81.8810,2.28,3.48,1111122 
SCCF RECON,ioos:station:SCCF:53:1,2008-08-06T15:00:00Z,26.6493,-81.8810,2.22,4.45,1111122 
SCCF RECON,ioos:station:SCCF:53:1,2008-08-06T16:00:00Z,26.6493,-81.8810,2.17,2.98,1111122 
SCCF RECON,ioos:station:SCCF:53:1,2008-08-06T17:00:00Z,26.6493,-81.8810,2.111,3.62,1111122 
SCCF RECON,ioos:station:SCCF:53:1,2008-08-06T18:00:00Z,26.6493,-81.8810,2.069,3.73,1111122 
SCCF RECON,ioos:station:SCCF:53:1,2008-08-06T19:00:00Z,26.6493,-81.8810,2.039,4.38,1111122 
SCCF RECON,ioos:station:SCCF:53:1,2008-08-06T20:00:00Z,26.6493,-81.8810,2.07,5.22,1111122 
SCCF RECON,ioos:station:SCCF:53:1,2008-08-06T21:00:00Z,26.6493,-81.8810,2.121,4.44,1111122 
SCCF RECON,ioos:station:SCCF:53:1,2008-08-06T22:00:00Z,26.6493,-81.8810,2.17,4.35,1111122 
SCCF RECON,ioos:station:SCCF:53:1,2008-08-06T23:00:00Z,26.6493,-81.8810,2.21,4.94,1111122 
SCCF RECON,ioos:station:SCCF:53:1,2008-08-07T00:00:00Z,26.6493,-81.8810,2.25,5.59,1111122 
SCCF RECON,ioos:station:SCCF:53:1,2008-08-07T01:00:00Z,26.6493,-81.8810,2.25,5.53,1111122 
SCCF RECON,ioos:station:SCCF:53:1,2008-08-07T02:00:00Z,26.6493,-81.8810,2.22,4.36,1111122 
SCCF RECON,ioos:station:SCCF:53:1,2008-08-07T03:00:00Z,26.6493,-81.8810,2.176,4.23,1111122 
SCCF RECON,ioos:station:SCCF:53:1,2008-08-07T04:00:00Z,26.6493,-81.8810,2.13,4.21,1111122 
SCCF RECON,ioos:station:SCCF:53:1,2008-08-07T05:00:00Z,26.6493,-81.8810,2.09,4.48,1111122 
SCCF RECON,ioos:station:SCCF:53:1,2008-08-07T06:00:00Z,26.6493,-81.8810,2.05,5.44,1111122 
SCCF RECON,ioos:station:SCCF:53:1,2008-08-07T07:00:00Z,26.6493,-81.8810,2.07,5.3,1111122 
SCCF RECON,ioos:station:SCCF:53:1,2008-08-07T08:00:00Z,26.6493,-81.8810,2.13,5.27,1111122 
SCCF RECON,ioos:station:SCCF:53:1,2008-08-07T09:00:00Z,26.6493,-81.8810,2.19,5.02,1111122 
SCCF RECON,ioos:station:SCCF:53:1,2008-08-07T10:00:00Z,26.6493,-81.8810,2.25,5.67,1111122 
SCCF RECON,ioos:station:SCCF:53:1,2008-08-07T11:00:00Z,26.6493,-81.8810,2.312,5.52,1111122 
SCCF RECON,ioos:station:SCCF:53:1,2008-08-07T12:00:00Z,26.6493,-81.8810,2.35,5.66,1111122 
SCCF RECON,ioos:station:SCCF:53:1,2008-08-07T13:00:00Z,26.6493,-81.8810,2.36,5.82,1111122 
SCCF RECON,ioos:station:SCCF:53:1,2008-08-07T14:00:00Z,26.6493,-81.8810,2.315,4.65,1111122 
SCCF RECON,ioos:station:SCCF:53:1,2008-08-07T15:00:00Z,26.6493,-81.8810,2.251,4.03,1111122 
SCCF RECON,ioos:station:SCCF:53:1,2008-08-07T16:00:00Z,26.6493,-81.8810,2.199,3.9,1111122 
SCCF RECON,ioos:station:SCCF:53:1,2008-08-07T17:00:00Z,26.6493,-81.8810,2.136,4.67,1111122 
SCCF RECON,ioos:station:SCCF:53:1,2008-08-07T18:00:00Z,26.6493,-81.8810,2.08,4.8,1111122 
SCCF RECON,ioos:station:SCCF:53:1,2008-08-07T19:00:00Z,26.6493,-81.8810,2.032,5.02,1111122 
SCCF RECON,ioos:station:SCCF:53:1,2008-08-07T20:00:00Z,26.6493,-81.8810,2.001,5.02,1111122 
SCCF RECON,ioos:station:SCCF:53:1,2008-08-07T21:00:00Z,26.6493,-81.8810,2.01,5.22,1111122 
SCCF RECON,ioos:station:SCCF:53:1,2008-08-07T22:00:00Z,26.6493,-81.8810,2.05,5.62,1111122 
SCCF RECON,ioos:station:SCCF:53:1,2008-08-07T23:00:00Z,26.6493,-81.8810,2.1,5.91,1111122 
SCCF RECON,ioos:station:SCCF:53:1,2008-08-08T00:00:00Z,26.6493,-81.8810,2.148,5.81,1111122 
SCCF RECON,ioos:station:SCCF:53:1,2008-08-08T01:00:00Z,26.6493,-81.8810,2.187,5.43,1111122 
SCCF RECON,ioos:station:SCCF:53:1,2008-08-08T02:00:00Z,26.6493,-81.8810,2.201,5.49,1111122 
SCCF RECON,ioos:station:SCCF:53:1,2008-08-08T03:00:00Z,26.6493,-81.8810,2.192,4.95,1111122 
SCCF RECON,ioos:station:SCCF:53:1,2008-08-08T04:00:00Z,26.6493,-81.8810,2.17,4.99,1111122 
SCCF RECON,ioos:station:SCCF:53:1,2008-08-08T05:00:00Z,26.6493,-81.8810,2.14,5.03,1111122 
SCCF RECON,ioos:station:SCCF:53:1,2008-08-08T06:00:00Z,26.6493,-81.8810,2.11,5.27,1111122 
SCCF RECON,ioos:station:SCCF:53:1,2008-08-08T07:00:00Z,26.6493,-81.8810,2.1,5.42,1111122 
SCCF RECON,ioos:station:SCCF:53:1,2008-08-08T08:00:00Z,26.6493,-81.8810,2.14,5.72,1111122 
SCCF RECON,ioos:station:SCCF:53:1,2008-08-08T09:00:00Z,26.6493,-81.8810,2.21,5.79,1111122 
SCCF RECON,ioos:station:SCCF:53:1,2008-08-08T10:00:00Z,26.6493,-81.8810,2.27,5.67,1111122 
SCCF RECON,ioos:station:SCCF:53:1,2008-08-08T11:00:00Z,26.6493,-81.8810,2.33,6.43,1111122 
SCCF RECON,ioos:station:SCCF:53:1,2008-08-08T12:00:00Z,26.6493,-81.8810,2.379,6.56,1111122 
SCCF RECON,ioos:station:SCCF:53:1,2008-08-08T13:00:00Z,26.6493,-81.8810,2.401,6.48,1111122 
SCCF RECON,ioos:station:SCCF:53:1,2008-08-08T14:00:00Z,26.6493,-81.8810,2.4,6.06,1111122 
SCCF RECON,ioos:station:SCCF:53:1,2008-08-08T15:00:00Z,26.6493,-81.8810,2.36,5.08,1111122 
SCCF RECON,ioos:station:SCCF:53:1,2008-08-08T16:00:00Z,26.6493,-81.8810,2.307,4.64,1111122 
SCCF RECON,ioos:station:SCCF:53:1,2008-08-08T17:00:00Z,26.6493,-81.8810,2.249,3.72,1111122 
SCCF RECON,ioos:station:SCCF:53:1,2008-08-08T18:00:00Z,26.6493,-81.8810,2.19,2.89,1111122 
SCCF RECON,ioos:station:SCCF:53:1,2008-08-08T19:00:00Z,26.6493,-81.8810,2.141,2.46,1111122 
SCCF RECON,ioos:station:SCCF:53:1,2008-08-08T20:00:00Z,26.6493,-81.8810,2.095,2.3,1111122 
SCCF RECON,ioos:station:SCCF:53:1,2008-08-08T21:00:00Z,26.6493,-81.8810,2.087,1.67,1111122 
SCCF RECON,ioos:station:SCCF:53:1,2008-08-08T22:00:00Z,26.6493,-81.8810,2.08,1.81,1111122 
SCCF RECON,ioos:station:SCCF:53:1,2008-08-08T23:00:00Z,26.6493,-81.8810,2.1,1.72,1111122 
SCCF RECON,ioos:station:SCCF:53:1,2008-08-09T00:00:00Z,26.6493,-81.8810,2.14,2.05,1111122 
SCCF RECON,ioos:station:SCCF:53:1,2008-08-09T01:00:00Z,26.6493,-81.8810,2.17,2.08,1111122 
SCCF RECON,ioos:station:SCCF:53:1,2008-08-09T02:00:00Z,26.6493,-81.8810,2.208,1.98,1111122 
SCCF RECON,ioos:station:SCCF:53:1,2008-08-09T03:00:00Z,26.6493,-81.8810,2.23,1.98,1111122 
SCCF RECON,ioos:station:SCCF:53:1,2008-08-09T04:00:00Z,26.6493,-81.8810,2.24,2.03,1111122 
SCCF RECON,ioos:station:SCCF:53:1,2008-08-09T05:00:00Z,26.6493,-81.8810,2.23,2.14,1111122 
SCCF RECON,ioos:station:SCCF:53:1,2008-08-09T06:00:00Z,26.6493,-81.8810,2.18,1.94,1111122 
SCCF RECON,ioos:station:SCCF:53:1,2008-08-09T07:00:00Z,26.6493,-81.8810,2.162,1.96,1111122 
SCCF RECON,ioos:station:SCCF:53:1,2008-08-09T08:00:00Z,26.6493,-81.8810,2.19,2.24,1111122 
SCCF RECON,ioos:station:SCCF:53:1,2008-08-09T09:00:00Z,26.6493,-81.8810,2.235,3.69,1111122 
SCCF RECON,ioos:station:SCCF:53:1,2008-08-09T10:00:00Z,26.6493,-81.8810,2.29,3.89,1111122 
SCCF RECON,ioos:station:SCCF:53:1,2008-08-09T11:00:00Z,26.6493,-81.8810,2.35,4.21,1111122 
SCCF RECON,ioos:station:SCCF:53:1,2008-08-09T12:00:00Z,26.6493,-81.8810,2.4,4.48,1111122 
SCCF RECON,ioos:station:SCCF:53:1,2008-08-09T13:00:00Z,26.6493,-81.8810,2.469,4.87,1111122 
SCCF RECON,ioos:station:SCCF:53:1,2008-08-09T14:00:00Z,26.6493,-81.8810,2.47,4.26,1111122 
SCCF RECON,ioos:station:SCCF:53:1,2008-08-09T15:00:00Z,26.6493,-81.8810,2.44,2.87,1111122 
SCCF RECON,ioos:station:SCCF:53:1,2008-08-09T16:00:00Z,26.6493,-81.8810,2.38,2.44,1111122 
SCCF RECON,ioos:station:SCCF:53:1,2008-08-09T17:00:00Z,26.6493,-81.8810,2.32,2.27,1111122 
SCCF RECON,ioos:station:SCCF:53:1,2008-08-09T18:00:00Z,26.6493,-81.8810,2.26,2.11,1111122 
SCCF RECON,ioos:station:SCCF:53:1,2008-08-09T19:00:00Z,26.6493,-81.8810,2.2,1.86,1111122 
SCCF RECON,ioos:station:SCCF:53:1,2008-08-09T20:00:00Z,26.6493,-81.8810,2.15,1.71,1111122 
SCCF RECON,ioos:station:SCCF:53:1,2008-08-09T21:00:00Z,26.6493,-81.8810,2.095,1.56,1111122 
SCCF RECON,ioos:station:SCCF:53:1,2008-08-09T22:00:00Z,26.6493,-81.8810,2.058,1.35,1111122 
SCCF RECON,ioos:station:SCCF:53:1,2008-08-09T23:00:00Z,26.6493,-81.8810,2.03,1.18,1111122 
SCCF RECON,ioos:station:SCCF:53:1,2008-08-10T00:00:00Z,26.6493,-81.8810,2.05,1.13,1111122 
SCCF RECON,ioos:station:SCCF:53:1,2008-08-10T01:00:00Z,26.6493,-81.8810,2.096,1.47,1111122 
SCCF RECON,ioos:station:SCCF:53:1,2008-08-10T02:00:00Z,26.6493,-81.8810,2.13,1.45,1111122 
SCCF RECON,ioos:station:SCCF:53:1,2008-08-10T03:00:00Z,26.6493,-81.8810,2.18,2.06,1111122 
SCCF RECON,ioos:station:SCCF:53:1,2008-08-10T04:00:00Z,26.6493,-81.8810,2.21,1.97,1111122 
SCCF RECON,ioos:station:SCCF:53:1,2008-08-10T05:00:00Z,26.6493,-81.8810,2.228,2.02,1111122 
SCCF RECON,ioos:station:SCCF:53:1,2008-08-10T06:00:00Z,26.6493,-81.8810,2.25,2.04,1111122 
SCCF RECON,ioos:station:SCCF:53:1,2008-08-10T07:00:00Z,26.6493,-81.8810,2.27,2.58,1111122 
SCCF RECON,ioos:station:SCCF:53:1,2008-08-10T08:00:00Z,26.6493,-81.8810,2.29,2.22,1111122 
SCCF RECON,ioos:station:SCCF:53:1,2008-08-10T09:00:00Z,26.6493,-81.8810,2.3,2.46,1111122 
SCCF RECON,ioos:station:SCCF:53:1,2008-08-10T10:00:00Z,26.6493,-81.8810,2.34,3.2,1111122 
SCCF RECON,ioos:station:SCCF:53:1,2008-08-10T11:00:00Z,26.6493,-81.8810,2.37,4.05,1111122 
SCCF RECON,ioos:station:SCCF:53:1,2008-08-10T12:00:00Z,26.6493,-81.8810,2.416,3.69,1111122 
SCCF RECON,ioos:station:SCCF:53:1,2008-08-10T13:00:00Z,26.6493,-81.8810,2.46,4.02,1111122 
SCCF RECON,ioos:station:SCCF:53:1,2008-08-10T14:00:00Z,26.6493,-81.8810,2.504,4.06,1111122 
SCCF RECON,ioos:station:SCCF:53:1,2008-08-10T15:00:00Z,26.6493,-81.8810,2.5,3.6,1111122 
SCCF RECON,ioos:station:SCCF:53:1,2008-08-10T16:00:00Z,26.6493,-81.8810,2.44,2.31,1111122 
SCCF RECON,ioos:station:SCCF:53:1,2008-08-10T17:00:00Z,26.6493,-81.8810,2.383,2.35,1111122 
SCCF RECON,ioos:station:SCCF:53:1,2008-08-10T18:00:00Z,26.6493,-81.8810,2.327,2.09,1111122 
SCCF RECON,ioos:station:SCCF:53:1,2008-08-10T19:00:00Z,26.6493,-81.8810,2.27,1.98,1111122 
SCCF RECON,ioos:station:SCCF:53:1,2008-08-10T20:00:00Z,26.6493,-81.8810,2.206,1.62,1111122 
SCCF RECON,ioos:station:SCCF:53:1,2008-08-10T21:00:00Z,26.6493,-81.8810,2.158,1.39,1111122 
SCCF RECON,ioos:station:SCCF:53:1,2008-08-10T22:00:00Z,26.6493,-81.8810,2.102,1.11,1111122 
SCCF RECON,ioos:station:SCCF:53:1,2008-08-10T23:00:00Z,26.6493,-81.8810,2.067,0.87,1111122 
SCCF RECON,ioos:station:SCCF:53:1,2008-08-11T00:00:00Z,26.6493,-81.8810,2.058,0.68,1111122 
SCCF RECON,ioos:station:SCCF:53:1,2008-08-11T01:00:00Z,26.6493,-81.8810,2.06,0.67,1111122 
SCCF RECON,ioos:station:SCCF:53:1,2008-08-11T02:00:00Z,26.6493,-81.8810,2.08,0.73,1111122 
SCCF RECON,ioos:station:SCCF:53:1,2008-08-11T03:00:00Z,26.6493,-81.8810,2.12,1.47,1111122 
SCCF RECON,ioos:station:SCCF:53:1,2008-08-11T04:00:00Z,26.6493,-81.8810,2.17,1.59,1111122 
SCCF RECON,ioos:station:SCCF:53:1,2008-08-11T05:00:00Z,26.6493,-81.8810,2.21,1.42,1111122 
SCCF RECON,ioos:station:SCCF:53:1,2008-08-11T06:00:00Z,26.6493,-81.8810,2.24,1.97,1111122 
SCCF RECON,ioos:station:SCCF:53:1,2008-08-11T07:00:00Z,26.6493,-81.8810,2.26,1.91,1111122 
SCCF RECON,ioos:station:SCCF:53:1,2008-08-11T08:00:00Z,26.6493,-81.8810,2.27,2.32,1111122 
SCCF RECON,ioos:station:SCCF:53:1,2008-08-11T09:00:00Z,26.6493,-81.8810,2.27,2.75,1111122 
SCCF RECON,ioos:station:SCCF:53:1,2008-08-11T10:00:00Z,26.6493,-81.8810,2.27,2.99,1111122 
SCCF RECON,ioos:station:SCCF:53:1,2008-08-11T11:00:00Z,26.6493,-81.8810,2.31,3.29,1111122 
SCCF RECON,ioos:station:SCCF:53:1,2008-08-11T12:00:00Z,26.6493,-81.8810,2.36,3.51,1111122 
SCCF RECON,ioos:station:SCCF:53:1,2008-08-11T13:00:00Z,26.6493,-81.8810,2.4,3.75,1111122 
SCCF RECON,ioos:station:SCCF:53:1,2008-08-11T14:00:00Z,26.6493,-81.8810,2.44,3.69,1111122 
SCCF RECON,ioos:station:SCCF:53:1,2008-08-11T15:00:00Z,26.6493,-81.8810,2.46,3.75,1111122 
SCCF RECON,ioos:station:SCCF:53:1,2008-08-11T16:00:00Z,26.6493,-81.8810,2.44,3.86,1111122 
SCCF RECON,ioos:station:SCCF:53:1,2008-08-11T17:00:00Z,26.6493,-81.8810,2.391,3.47,1111122 
SCCF RECON,ioos:station:SCCF:53:1,2008-08-11T18:00:00Z,26.6493,-81.8810,2.34,2.64,1111122 
SCCF RECON,ioos:station:SCCF:53:1,2008-08-11T19:00:00Z,26.6493,-81.8810,2.274,1.9,1111122 
SCCF RECON,ioos:station:SCCF:53:1,2008-08-11T20:00:00Z,26.6493,-81.8810,2.219,1.49,1111122 
SCCF RECON,ioos:station:SCCF:53:1,2008-08-11T21:00:00Z,26.6493,-81.8810,2.159,1.14,1111122 